CFG4465 EDDF-LHBP

Flight info

Callsign CFG4465
Flight time 1h 21m
Altitude 31000
Route SULUS7S/18 SULUS Z650 VEMUT/N0437F350 DCT PEPIK DCT NIT/N0394F230 M748 ARFOX
Aircraft A319/M-SDE2FGHIJ1RWXY/HB1

Departure

Time 2026-05-06 09:33
Airport Frankfurt Main Airport (EDDF)

Arrival

Time 2026-05-06 10:55
Airport Budapest Liszt Ferenc International Airport (LHBP)
Time Latitude Longitude Altitude Speed Heading
2026-05-06 08:45 50.04899 8.58796 366 ft 0 kts 160°
2026-05-06 09:19 50.04911 8.58790 364 ft 4 kts 160°
2026-05-06 09:20 50.04933 8.58777 365 ft 2 kts 160°
2026-05-06 09:20 50.04956 8.58770 360 ft 4 kts 195°
2026-05-06 09:20 50.04977 8.58790 360 ft 4 kts 238°
2026-05-06 09:20 50.04987 8.58825 364 ft 3 kts 250°
2026-05-06 09:21 50.04989 8.58831 365 ft 0 kts 250°
2026-05-06 09:24 50.04988 8.58826 360 ft 2 kts 250°
2026-05-06 09:24 50.04977 8.58783 360 ft 7 kts 250°
2026-05-06 09:24 50.04953 8.58682 361 ft 12 kts 249°
2026-05-06 09:24 50.04921 8.58552 360 ft 14 kts 249°
2026-05-06 09:25 50.04881 8.58386 360 ft 18 kts 249°
2026-05-06 09:25 50.04835 8.58187 361 ft 21 kts 250°
2026-05-06 09:25 50.04768 8.57972 362 ft 23 kts 229°
2026-05-06 09:25 50.04674 8.57761 360 ft 24 kts 248°
2026-05-06 09:26 50.04614 8.57514 364 ft 25 kts 250°
2026-05-06 09:26 50.04550 8.57248 365 ft 27 kts 249°
2026-05-06 09:26 50.04491 8.56997 359 ft 25 kts 250°
2026-05-06 09:26 50.04431 8.56744 358 ft 26 kts 250°
2026-05-06 09:27 50.04365 8.56476 356 ft 27 kts 250°
2026-05-06 09:27 50.04301 8.56197 355 ft 27 kts 250°
2026-05-06 09:27 50.04232 8.55912 354 ft 29 kts 250°
2026-05-06 09:27 50.04160 8.55613 355 ft 30 kts 249°
2026-05-06 09:28 50.04086 8.55303 353 ft 31 kts 249°
2026-05-06 09:28 50.04016 8.55012 360 ft 29 kts 250°
2026-05-06 09:28 50.03948 8.54723 356 ft 27 kts 250°
2026-05-06 09:28 50.03882 8.54449 348 ft 26 kts 249°
2026-05-06 09:29 50.03794 8.54202 347 ft 27 kts 246°
2026-05-06 09:29 50.03727 8.53920 346 ft 29 kts 250°
2026-05-06 09:29 50.03655 8.53622 342 ft 30 kts 249°
2026-05-06 09:29 50.03578 8.53316 336 ft 31 kts 249°
2026-05-06 09:30 50.03509 8.53024 337 ft 28 kts 249°
2026-05-06 09:30 50.03439 8.52758 332 ft 19 kts 249°
2026-05-06 09:30 50.03396 8.52617 333 ft 14 kts 223°
2026-05-06 09:30 50.03347 8.52595 332 ft 0 kts 178°
2026-05-06 09:32 50.03329 8.52596 333 ft 12 kts 178°
2026-05-06 09:32 50.02963 8.52597 336 ft 97 kts 179°
2026-05-06 09:32 50.02020 8.52609 334 ft 169 kts 179°
2026-05-06 09:33 50.00764 8.52623 956 ft 179 kts 180°
2026-05-06 09:33 49.99512 8.52645 1899 ft 183 kts 180°
2026-05-06 09:33 49.98162 8.52659 2502 ft 205 kts 180°
2026-05-06 09:33 49.96743 8.53263 3056 ft 230 kts 148°
2026-05-06 09:34 49.95712 8.55217 3785 ft 242 kts 119°
2026-05-06 09:34 49.94914 8.57558 4568 ft 248 kts 120°
2026-05-06 09:34 49.94197 8.59945 5868 ft 246 kts 107°
2026-05-06 09:34 49.93940 8.62713 6613 ft 271 kts 95°
2026-05-06 09:35 49.93741 8.65691 7516 ft 283 kts 102°
2026-05-06 09:35 49.93114 8.68612 8555 ft 289 kts 117°
2026-05-06 09:35 49.91985 8.71200 9603 ft 293 kts 134°
2026-05-06 09:35 49.90623 8.73062 10288 ft 306 kts 146°
2026-05-06 09:36 49.88916 8.75238 10829 ft 329 kts 136°
2026-05-06 09:36 49.87500 8.78087 11670 ft 340 kts 123°
2026-05-06 09:36 49.86326 8.81307 12634 ft 345 kts 121°
2026-05-06 09:36 49.85146 8.84580 13590 ft 348 kts 121°
2026-05-06 09:37 49.83956 8.87872 14483 ft 352 kts 121°
2026-05-06 09:37 49.82752 8.91189 15370 ft 356 kts 121°
2026-05-06 09:37 49.81534 8.94540 16224 ft 360 kts 121°
2026-05-06 09:37 49.80300 8.97931 17056 ft 363 kts 121°
2026-05-06 09:38 49.79045 9.01370 17875 ft 367 kts 121°
2026-05-06 09:38 49.77804 9.04770 18653 ft 370 kts 121°
2026-05-06 09:38 49.76584 9.08306 19403 ft 376 kts 115°
2026-05-06 09:38 49.75722 9.12144 20108 ft 382 kts 105°
2026-05-06 09:39 49.75089 9.16165 20822 ft 387 kts 105°
2026-05-06 09:39 49.74444 9.20238 21510 ft 391 kts 105°
2026-05-06 09:39 49.73787 9.24342 22172 ft 396 kts 105°
2026-05-06 09:39 49.73114 9.28500 22821 ft 400 kts 105°
2026-05-06 09:40 49.72427 9.32698 23434 ft 405 kts 105°
2026-05-06 09:40 49.71733 9.36931 24025 ft 409 kts 105°
2026-05-06 09:40 49.70329 9.45477 25163 ft 417 kts 106°
2026-05-06 09:41 49.69611 9.49830 25713 ft 420 kts 106°
2026-05-06 09:41 49.68892 9.54175 26243 ft 423 kts 106°
2026-05-06 09:41 49.68162 9.58601 26760 ft 426 kts 106°
2026-05-06 09:41 49.67578 9.63113 27260 ft 432 kts 98°
2026-05-06 09:42 49.67469 9.67760 27756 ft 438 kts 89°
2026-05-06 09:42 49.67863 9.72452 28243 ft 444 kts 79°
2026-05-06 09:42 49.68657 9.77080 28726 ft 447 kts 76°
2026-05-06 09:42 49.69481 9.81720 29183 ft 450 kts 76°
2026-05-06 09:43 49.70309 9.86408 29624 ft 454 kts 76°
2026-05-06 09:43 49.71191 9.91104 30053 ft 457 kts 72°
2026-05-06 09:43 49.72432 9.95578 30454 ft 463 kts 64°
2026-05-06 09:43 49.74103 9.99810 30743 ft 466 kts 56°
2026-05-06 09:44 49.77812 10.07797 30815 ft 444 kts 55°
2026-05-06 09:44 49.81373 10.15475 30810 ft 437 kts 55°
2026-05-06 09:45 49.84895 10.23137 30805 ft 436 kts 56°
2026-05-06 09:45 49.88408 10.30805 30802 ft 436 kts 56°
2026-05-06 09:46 49.91897 10.38433 30807 ft 436 kts 56°
2026-05-06 09:46 49.95403 10.46114 30804 ft 436 kts 56°
2026-05-06 09:47 49.98910 10.53821 30803 ft 436 kts 56°
2026-05-06 09:47 50.02404 10.61530 30804 ft 436 kts 56°
2026-05-06 09:48 50.05138 10.69777 30803 ft 432 kts 75°
2026-05-06 09:48 50.05726 10.74330 30803 ft 428 kts 86°
2026-05-06 09:48 50.05763 10.78948 30807 ft 425 kts 97°
2026-05-06 09:49 50.05269 10.83445 30804 ft 421 kts 108°
2026-05-06 09:49 50.04388 10.87774 30805 ft 420 kts 111°
2026-05-06 09:49 50.02561 10.96396 30797 ft 420 kts 111°
2026-05-06 09:50 50.00724 11.05037 30798 ft 421 kts 111°
2026-05-06 09:50 49.98902 11.13601 30781 ft 420 kts 111°
2026-05-06 09:51 49.97056 11.22231 30778 ft 422 kts 112°
2026-05-06 09:51 49.95196 11.30914 30784 ft 424 kts 112°
2026-05-06 09:52 49.93338 11.39614 30772 ft 426 kts 112°
2026-05-06 09:52 49.91603 11.48410 30782 ft 427 kts 109°
2026-05-06 09:53 49.90028 11.57293 30786 ft 427 kts 109°
2026-05-06 09:53 49.88451 11.66165 30787 ft 427 kts 108°
2026-05-06 09:54 49.87510 11.75264 30805 ft 431 kts 101°
2026-05-06 09:54 49.86692 11.84470 30806 ft 431 kts 101°
2026-05-06 09:55 49.85861 11.93667 30795 ft 431 kts 101°
2026-05-06 09:55 49.85031 12.02846 30792 ft 430 kts 101°
2026-05-06 09:56 49.84206 12.12031 30802 ft 430 kts 101°
2026-05-06 09:56 49.83372 12.21200 30795 ft 430 kts 101°
2026-05-06 09:57 49.82536 12.30322 30793 ft 430 kts 101°
2026-05-06 09:57 49.81682 12.39497 30801 ft 430 kts 101°
2026-05-06 09:58 49.80588 12.48570 30800 ft 426 kts 111°
2026-05-06 09:58 49.78832 12.57324 30805 ft 426 kts 110°
2026-05-06 09:59 49.77079 12.66095 30809 ft 426 kts 110°
2026-05-06 09:59 49.76195 12.70507 30870 ft 438 kts 110°
2026-05-06 09:59 49.75281 12.75053 31084 ft 447 kts 110°
2026-05-06 10:00 49.74353 12.79681 31533 ft 449 kts 110°
2026-05-06 10:00 49.73440 12.84224 32071 ft 449 kts 110°
2026-05-06 10:00 49.72510 12.88827 32622 ft 448 kts 110°
2026-05-06 10:00 49.71579 12.93414 33179 ft 447 kts 110°
2026-05-06 10:01 49.70648 12.97986 33726 ft 446 kts 110°
2026-05-06 10:01 49.69719 13.02539 34264 ft 445 kts 110°
2026-05-06 10:01 49.68789 13.07096 34705 ft 446 kts 110°
2026-05-06 10:01 49.67852 13.11673 34826 ft 446 kts 110°
2026-05-06 10:02 49.65978 13.20791 34841 ft 445 kts 110°
2026-05-06 10:02 49.64109 13.29875 34839 ft 444 kts 110°
2026-05-06 10:03 49.62240 13.38887 34841 ft 444 kts 110°
2026-05-06 10:03 49.60347 13.47955 34841 ft 444 kts 111°
2026-05-06 10:04 49.58447 13.57011 34838 ft 444 kts 111°
2026-05-06 10:04 49.56541 13.66067 34834 ft 444 kts 111°
2026-05-06 10:05 49.54626 13.75121 34833 ft 444 kts 111°
2026-05-06 10:05 49.52721 13.84093 34833 ft 444 kts 111°
2026-05-06 10:06 49.50798 13.93136 34833 ft 445 kts 111°
2026-05-06 10:06 49.48868 14.02179 34832 ft 444 kts 111°
2026-05-06 10:07 49.46930 14.11194 34832 ft 444 kts 111°
2026-05-06 10:07 49.44999 14.20137 34831 ft 444 kts 111°
2026-05-06 10:08 49.43052 14.29132 34832 ft 444 kts 111°
2026-05-06 10:08 49.41094 14.38119 34829 ft 443 kts 111°
2026-05-06 10:09 49.39133 14.47078 34830 ft 443 kts 111°
2026-05-06 10:09 49.37161 14.56039 34832 ft 442 kts 111°
2026-05-06 10:10 49.35199 14.64910 34831 ft 442 kts 111°
2026-05-06 10:10 49.33218 14.73845 34831 ft 442 kts 111°
2026-05-06 10:11 49.31246 14.82735 34831 ft 442 kts 111°
2026-05-06 10:11 49.29246 14.91667 34836 ft 442 kts 111°
2026-05-06 10:12 49.27247 15.00570 34840 ft 442 kts 111°
2026-05-06 10:12 49.25255 15.09400 34843 ft 442 kts 112°
2026-05-06 10:13 49.23245 15.18278 34845 ft 442 kts 112°
2026-05-06 10:13 49.21234 15.27150 34848 ft 441 kts 112°
2026-05-06 10:14 49.19213 15.36005 34849 ft 441 kts 112°
2026-05-06 10:14 49.17182 15.44858 34847 ft 441 kts 112°
2026-05-06 10:15 49.15157 15.53637 34850 ft 441 kts 112°
2026-05-06 10:15 49.13110 15.62475 34851 ft 441 kts 112°
2026-05-06 10:16 49.11069 15.71287 34852 ft 440 kts 112°
2026-05-06 10:16 49.09019 15.80088 34852 ft 440 kts 112°
2026-05-06 10:17 49.06964 15.88881 34851 ft 440 kts 112°
2026-05-06 10:17 49.04902 15.97666 34852 ft 439 kts 112°
2026-05-06 10:18 49.02849 16.06367 34853 ft 439 kts 112°
2026-05-06 10:18 49.00776 16.15117 34855 ft 440 kts 112°
2026-05-06 10:19 48.98693 16.23870 34856 ft 440 kts 112°
2026-05-06 10:19 48.96603 16.32615 34858 ft 440 kts 112°
2026-05-06 10:20 48.94509 16.41359 34857 ft 440 kts 112°
2026-05-06 10:20 48.92422 16.50032 34857 ft 439 kts 112°
2026-05-06 10:21 48.90314 16.58750 34858 ft 440 kts 112°
2026-05-06 10:21 48.88204 16.67464 34856 ft 439 kts 112°
2026-05-06 10:22 48.86089 16.76161 34854 ft 439 kts 112°
2026-05-06 10:22 48.83959 16.84851 34853 ft 439 kts 112°
2026-05-06 10:23 48.81838 16.93485 34852 ft 439 kts 112°
2026-05-06 10:23 48.79699 17.02144 34852 ft 439 kts 112°
2026-05-06 10:24 48.77027 17.10389 34850 ft 434 kts 127°
2026-05-06 10:24 48.73396 17.17699 34851 ft 434 kts 129°
2026-05-06 10:25 48.69771 17.24940 34854 ft 435 kts 129°
2026-05-06 10:25 48.67942 17.28588 34721 ft 436 kts 129°
2026-05-06 10:25 48.66109 17.32245 34475 ft 436 kts 129°
2026-05-06 10:26 48.64273 17.35901 34224 ft 436 kts 129°
2026-05-06 10:26 48.62439 17.39547 33975 ft 436 kts 129°
2026-05-06 10:26 48.60599 17.43204 33702 ft 436 kts 129°
2026-05-06 10:26 48.58772 17.46830 33078 ft 433 kts 129°
2026-05-06 10:27 48.56955 17.50437 32438 ft 431 kts 129°
2026-05-06 10:27 48.55140 17.54027 31778 ft 430 kts 129°
2026-05-06 10:27 48.53350 17.57558 31118 ft 428 kts 129°
2026-05-06 10:27 48.51547 17.61107 30477 ft 426 kts 129°
2026-05-06 10:28 48.49744 17.64654 29828 ft 424 kts 129°
2026-05-06 10:28 48.47958 17.68170 29189 ft 421 kts 129°
2026-05-06 10:28 48.46180 17.71656 28577 ft 418 kts 129°
2026-05-06 10:28 48.44405 17.75132 27955 ft 415 kts 129°
2026-05-06 10:29 48.42676 17.78524 27349 ft 412 kts 129°
2026-05-06 10:29 48.40937 17.81932 26749 ft 409 kts 129°
2026-05-06 10:29 48.39209 17.85313 26156 ft 406 kts 129°
2026-05-06 10:29 48.37490 17.88665 25581 ft 403 kts 129°
2026-05-06 10:30 48.35787 17.91978 25031 ft 399 kts 129°
2026-05-06 10:30 48.34092 17.95276 24483 ft 397 kts 129°
2026-05-06 10:30 48.32409 17.98546 23945 ft 394 kts 129°
2026-05-06 10:30 48.30740 18.01787 23418 ft 390 kts 129°
2026-05-06 10:31 48.29087 18.04989 22889 ft 387 kts 130°
2026-05-06 10:31 48.27372 18.08096 22565 ft 386 kts 132°
2026-05-06 10:31 48.25618 18.11067 22272 ft 385 kts 134°
2026-05-06 10:31 48.23810 18.14021 21946 ft 383 kts 134°
2026-05-06 10:32 48.21998 18.16949 21636 ft 382 kts 134°
2026-05-06 10:32 48.20199 18.19869 21309 ft 380 kts 134°
2026-05-06 10:32 48.18422 18.22780 20994 ft 378 kts 134°
2026-05-06 10:32 48.16657 18.25694 20679 ft 377 kts 134°
2026-05-06 10:33 48.14907 18.28596 20359 ft 375 kts 133°
2026-05-06 10:33 48.13170 18.31486 20050 ft 374 kts 134°
2026-05-06 10:33 48.11426 18.34383 19733 ft 372 kts 134°
2026-05-06 10:33 48.09718 18.37207 19443 ft 370 kts 134°
2026-05-06 10:34 48.07990 18.40052 19134 ft 369 kts 134°
2026-05-06 10:34 48.06271 18.42882 18837 ft 367 kts 134°
2026-05-06 10:34 48.04560 18.45703 18528 ft 365 kts 134°
2026-05-06 10:34 48.02860 18.48508 18218 ft 363 kts 134°
2026-05-06 10:35 48.01166 18.51301 17914 ft 362 kts 134°
2026-05-06 10:35 47.99484 18.54071 17611 ft 360 kts 134°
2026-05-06 10:35 47.97932 18.57004 17313 ft 360 kts 124°
2026-05-06 10:35 47.96801 18.60330 17011 ft 360 kts 112°
2026-05-06 10:36 47.95997 18.63861 16709 ft 359 kts 109°
2026-05-06 10:36 47.95223 18.67344 16423 ft 358 kts 109°
2026-05-06 10:36 47.94441 18.70861 16131 ft 357 kts 110°
2026-05-06 10:36 47.93659 18.74367 15830 ft 355 kts 110°
2026-05-06 10:37 47.92880 18.77849 15529 ft 354 kts 110°
2026-05-06 10:37 47.92105 18.81305 15237 ft 352 kts 110°
2026-05-06 10:37 47.91324 18.84774 14944 ft 351 kts 110°
2026-05-06 10:37 47.90546 18.88213 14649 ft 350 kts 110°
2026-05-06 10:38 47.89771 18.91643 14366 ft 348 kts 110°
2026-05-06 10:38 47.89002 18.95051 14068 ft 347 kts 110°
2026-05-06 10:38 47.88040 18.98270 13785 ft 343 kts 121°
2026-05-06 10:38 47.86656 19.01137 13504 ft 340 kts 133°
2026-05-06 10:39 47.85055 19.03717 13236 ft 339 kts 135°
2026-05-06 10:39 47.83452 19.06285 12935 ft 338 kts 135°
2026-05-06 10:39 47.81854 19.08843 12655 ft 337 kts 135°
2026-05-06 10:39 47.80257 19.11396 12373 ft 336 kts 135°
2026-05-06 10:40 47.78671 19.13931 12103 ft 334 kts 135°
2026-05-06 10:40 47.77625 19.15604 11921 ft 334 kts 135°
2026-05-06 10:40 47.76047 19.18124 11640 ft 332 kts 135°
2026-05-06 10:40 47.74486 19.20658 11356 ft 332 kts 134°
2026-05-06 10:41 47.72956 19.23203 11089 ft 330 kts 133°
2026-05-06 10:41 47.70951 19.26579 10729 ft 328 kts 133°
2026-05-06 10:41 47.69451 19.29111 10458 ft 326 kts 133°
2026-05-06 10:41 47.67959 19.31614 10212 ft 319 kts 133°
2026-05-06 10:42 47.66998 19.33217 10125 ft 309 kts 134°
2026-05-06 10:42 47.65584 19.35533 9921 ft 298 kts 135°
2026-05-06 10:42 47.64193 19.37774 9734 ft 293 kts 136°
2026-05-06 10:42 47.62578 19.39550 9546 ft 287 kts 159°
2026-05-06 10:43 47.60656 19.40061 9247 ft 281 kts 185°
2026-05-06 10:43 47.58816 19.39273 8927 ft 276 kts 210°
2026-05-06 10:43 47.57319 19.37495 8612 ft 276 kts 223°
2026-05-06 10:44 47.54587 19.33669 8161 ft 259 kts 231°
2026-05-06 10:44 47.53909 19.31270 7980 ft 253 kts 263°
2026-05-06 10:44 47.54178 19.28735 7868 ft 258 kts 293°
2026-05-06 10:44 47.55276 19.26628 7673 ft 261 kts 312°
2026-05-06 10:45 47.56520 19.24667 7442 ft 261 kts 311°
2026-05-06 10:45 47.57744 19.22688 7212 ft 260 kts 310°
2026-05-06 10:45 47.58955 19.20709 6987 ft 259 kts 310°
2026-05-06 10:45 47.60162 19.18734 6766 ft 258 kts 310°
2026-05-06 10:46 47.61367 19.16768 6541 ft 257 kts 310°
2026-05-06 10:46 47.62567 19.14809 6323 ft 257 kts 310°
2026-05-06 10:46 47.63765 19.12850 6094 ft 255 kts 310°
2026-05-06 10:46 47.64946 19.10924 5888 ft 254 kts 310°
2026-05-06 10:47 47.65967 19.08830 5665 ft 249 kts 290°
2026-05-06 10:47 47.66202 19.06391 5461 ft 234 kts 261°
2026-05-06 10:47 47.65654 19.04213 5255 ft 223 kts 233°
2026-05-06 10:47 47.64592 19.02597 5056 ft 215 kts 221°
2026-05-06 10:48 47.63496 19.01132 4868 ft 209 kts 221°
2026-05-06 10:48 47.62302 18.99956 4673 ft 204 kts 203°
2026-05-06 10:48 47.60971 18.99468 4534 ft 193 kts 185°
2026-05-06 10:48 47.59682 18.99628 4435 ft 181 kts 167°
2026-05-06 10:49 47.58559 19.00289 4296 ft 173 kts 152°
2026-05-06 10:49 47.57611 19.01364 4101 ft 172 kts 136°
2026-05-06 10:49 47.56810 19.02665 3893 ft 170 kts 134°
2026-05-06 10:49 47.56020 19.03952 3677 ft 167 kts 134°
2026-05-06 10:50 47.55257 19.05197 3461 ft 158 kts 134°
2026-05-06 10:50 47.54546 19.06357 3264 ft 145 kts 134°
2026-05-06 10:50 47.53895 19.07417 3081 ft 134 kts 134°
2026-05-06 10:50 47.53274 19.08427 2904 ft 131 kts 134°
2026-05-06 10:51 47.52666 19.09416 2728 ft 129 kts 135°
2026-05-06 10:51 47.52071 19.10383 2560 ft 128 kts 135°
2026-05-06 10:51 47.51471 19.11358 2387 ft 128 kts 135°
2026-05-06 10:51 47.50874 19.12330 2215 ft 128 kts 135°
2026-05-06 10:52 47.50273 19.13306 2045 ft 128 kts 135°
2026-05-06 10:52 47.49677 19.14274 1871 ft 127 kts 135°
2026-05-06 10:52 47.49081 19.15242 1707 ft 127 kts 135°
2026-05-06 10:52 47.48486 19.16209 1527 ft 127 kts 135°
2026-05-06 10:53 47.47891 19.17175 1364 ft 127 kts 135°
2026-05-06 10:53 47.47297 19.18137 1198 ft 127 kts 135°
2026-05-06 10:53 47.46701 19.19103 1026 ft 127 kts 135°
2026-05-06 10:53 47.46107 19.20069 856 ft 127 kts 134°
2026-05-06 10:54 47.45520 19.21019 692 ft 126 kts 134°
2026-05-06 10:54 47.44933 19.21972 537 ft 126 kts 134°
2026-05-06 10:54 47.44357 19.22922 455 ft 118 kts 134°
2026-05-06 10:54 47.43896 19.23658 456 ft 74 kts 133°
2026-05-06 10:55 47.43659 19.24043 453 ft 41 kts 132°
2026-05-06 10:55 47.43462 19.24361 452 ft 43 kts 133°
2026-05-06 10:55 47.43261 19.24681 454 ft 36 kts 133°
2026-05-06 10:55 47.43134 19.24887 455 ft 17 kts 131°
2026-05-06 10:56 47.43108 19.25043 457 ft 17 kts 68°
2026-05-06 10:56 47.43181 19.25166 456 ft 14 kts 41°
2026-05-06 10:56 47.43257 19.25268 457 ft 16 kts 43°
2026-05-06 10:56 47.43339 19.25380 457 ft 15 kts 42°
2026-05-06 10:57 47.43423 19.25491 456 ft 17 kts 43°
2026-05-06 10:57 47.43514 19.25615 457 ft 17 kts 43°
2026-05-06 10:57 47.43528 19.25740 456 ft 14 kts 126°
2026-05-06 10:57 47.43472 19.25850 456 ft 14 kts 125°
2026-05-06 10:58 47.43418 19.25948 457 ft 11 kts 113°
2026-05-06 10:58 47.43457 19.26024 458 ft 8 kts 53°
2026-05-06 10:58 47.43437 19.26095 458 ft 8 kts 133°
2026-05-06 10:58 47.43415 19.26129 456 ft 3 kts 133°
2026-05-06 10:59 47.43411 19.26135 458 ft 0 kts 133°